{"data":{"norad_id":57982,"epoch":"2026-05-24T17:26:05.946144Z","epoch_age_seconds":94632,"freshness":"FRESH","line1":"1 57982U 23151U   26144.72645771  .00000063  00000+0  11817-4 0  9999","line2":"2 57982  43.0026 284.5498 0001889 264.3177  95.7459 15.27574643147177","mean_motion":15.27574643,"eccentricity":0.0001889,"inclination_deg":43.0026,"raan_deg":284.5498,"arg_perigee_deg":264.3177,"mean_anomaly_deg":95.7459,"bstar":1.1817e-5,"rev_number":14717,"period_min":94.267079294534,"perigee_km":481.76905578805,"apogee_km":484.36121795536,"semimajor_km":6861.2021368717,"source":"CELESTRAK","updated_at":"2026-05-25T13:38:18.488468Z"}}